Hourly Data Report for December 14, 2017

VICTORIA UNIVERSITY CS
BRITISH COLUMBIA

48°27'25.200" N
123°18'16.600" W
60.10 m
1018598
71783
WYJ

Download Data

Hourly Data (December 2017)
Hourly Data Report for December 14, 2017
TIME
LST
Temp Definition
°C
Dew Point Definition
°C
Rel Hum Definition
%
Precip. Amount Definition
mm

Wind Dir Definition
10's deg

Wind Spd Definition
km/h
Visibility Definition
km
Stn Press Definition
kPa
Hmdx Definition


Wind Chill Definition


Weather Definition


00:00 6.1 4.5 89 0.0 1 5   102.24     LegendNANA
01:00 5.6 4.6 94 0.0 3 3   102.17     LegendNANA
02:00 6.3 4.5 88 0.0 1 6   102.15     LegendNANA
03:00 6.0 3.7 85 0.0 35 5   102.11     LegendNANA
04:00 6.1 4.2 87 0.0 36 8   102.10     LegendNANA
05:00 6.0 4.2 88 0.0 35 6   102.08     LegendNANA
06:00 5.9 3.5 85 0.0 35 8   102.10     LegendNANA
07:00 5.7 3.1 84 0.0 36 8   102.06     LegendNANA
08:00 5.4 3.4 87 0.0 36 8   102.02     LegendNANA
09:00 5.4 3.9 90 0.0 35 6   102.05     LegendNANA
10:00 7.6 4.0 78 0.0 34 8   102.07     LegendNANA
11:00 7.6 3.4 75 0.0 2 7   101.99     LegendNANA
12:00 8.5 4.0 73 0.0 2 7   101.96     LegendNANA
13:00 8.7 4.7 76 0.0 2 5   101.82     LegendNANA
14:00 8.5 4.4 75 0.0 36 7   101.82     LegendNANA
15:00 7.7 4.2 79 0.0 2 5   101.79     LegendNANA
16:00 6.5 4.2 85 0.0 36 3   101.76     LegendNANA
17:00 5.5 4.1 91 0.0 0 1   101.73     LegendNANA
18:00 4.2 3.4 94 0.0 9 1   101.70     LegendNANA
19:00 3.3 2.7 96 0.0   0   101.64     LegendNANA
20:00 3.2 2.8 97 0.0   0   101.63     LegendNANA
21:00 2.3 1.9 97 0.0 27 1   101.61     LegendNANA
22:00 3.2 2.9 98 0.0 23 3   101.60     LegendNANA
23:00 4.8 4.4 97 0.0 17 3   101.56     LegendNANA

Notes on Data Quality.

Legend

  • E = Estimated
  • M = Missing
  • NA = Not Available*
  • [empty] = Indicates an unobserved value
Date modified: